Zurück zum Katalog

STARLINK-2440

AktivKommunikationVLEO
NORAD 48105·PAYLOAD·🇺🇸 United States

Gestartet Apr 7, 2021 von Cape Canaveral Space Force Station

Loading…

Nächste Überflüge (nächste 24 Stunden)

TLE

AktuellSource: CelesTrak SupGP

Epoche: Sep 14, 2026, 22:06 UTC

1 48105C 21027P   26257.92131944  .00027782  00000+0  89409-3 0  2570
2 48105  53.1570 300.6037 0001176  79.7383  75.3226 15.31663620    11

Verfolge STARLINK-2440 in Echtzeit mit AllMySat

Download on the App Store